SCP
0 0 0 0 0 0 0 0 0 0 0 0 0 0 0 0 0 0 0 0 0 0 0 0 0 0 0 0 0 0 0 0 0 0 0 0 0 0 0 0 0 0 0
0 0 0 0 0 0 0 0 0 0 0 0 0 0 0 0 0 0 0 0 0 0 0 0 0 0 0 0 0 0 0 0 0 0 0 0 0 0 0 0 0 0 0
0 0 0 0 0 0 0 0 0 0 0 0 0 0 0 0 0 0 0 0 0 0 0 0 0 0 0 0 0 0 0 0 0 0 0 0 0 0 0 0 0 0 0
0 0 0 0 0 0 0 0 0 0 0 0 0 0 0 0 0 0 0 0 0 0 0 0 0 0 0 0 0 0 0 0 0 0 0 0 0 0 0 0 0 0 0
0 0 0 0 0 0 0 0 0 0 0 0 0 0 0 0 0 0 0 0 0 0 0 0 0 0 0 0 0 0 0 0 0 0 0 0 0 0 0 0 0 0 0
0 0 0 0 0 0 0 0 0 0 0 0 0 0 0 0 0 0 0 0 0 0 0 0 0 0 0 0 0 0 0 0 0 0 0 0 0 0 0 0 0 0 0
0 0 0 0 0 0 0 0 0 0 0 0 0 0 0 0 0 0 0 0 0 0 0 0 0 0 0 0 0 0 0 0 0 0 0 0 0 0 0 0 0 0 0
0 0 0 0 0 0 0 0 0 0 0 0 0 0 0 0 0 0 0 0 0 0 0 0 0 0 0 0 0 0 0 0 0 0 0 0 0 0 0 0 0 0 0
0 0 0 0 0 0 0 0 0 0 0 0 0 0 0 0 0 0 0 0 0 0 0 0 0 0 0 0 0 0 0 0 0 0 0 0 0 0 0 0 0 0 0
0 0 0 0 0 0 0 0 0 0 0 0 0 0 0 0 0 0 0 0 0 0 0 0 0 0 0 0 0 0 0 0 0 0 0 0 0 0 0 0 0 0 0
0 0 0 0 0 0 0 0 0 0 0 0 0 0 0 0 0 0 0 0 0 0 0 0 0 0 0 0 0 0 0 0 0 0 0 0 0 0 0 0 0 0 0
0 0 0 0 0 0 0 0 0 0 0 0 0 0 0 0 0 0 0 0 0 0 0 0 0 0 0 0 0 0 0 0 0 0 0 0 0 0 0 0 0 0 0
0 0 0 0 0 0 0 0 0 0 0 0 0 0 0 0 0 0 0 0 0 0 0 0 0 0 0 0 0 0 0 0 0 0 0 0 0 0 0 0 0 0 0
0 0 0 0 0 0 0 0 0 0 0 0 0 0 0 0 0 0 0 0 0 0 0 0 0 0 0 0 0 0 0 0 0 0 0 0 0 0 0 0 0 0 0
0 0 0 0 0 0 0 0 0 0 0 0 0 0 0 0 0 0 0 0 0 0 0 0 0 0 0 0 0 0 0 0 0 0 0 0 0 0 0 0 0 0 0
0 0 0 0 0 0 0 0 0 0 0 0 0 0 0 0 0 0 0 0 0 0 0 0 0 0 0 0 0 0 0 0 0 0 0 0 0 0 0 0 0 0 0
0 0 0 0 0 0 0 0 0 0 0 0 0 0 0 0 0 0 0 0 0 0 0 0 0 0 0 0 0 0 0 0 0 0 0 0 0 0 0 0 0 0 0
0 0 0 0 0 0 0 0 0 0 0 0 0 0 0 0 0 0 0 0 0 0 0 0 0 0 0 0 0 0 0 0 0 0 0 0 0 0 0 0 0 0 0
0 0 0 0 0 0 0 0 0 0 0 0 0 0 0 0 0 0 0 0 0 0 0 0 0 0 0 0 0 0 0 0 0 0 0 0 0 0 0 0 0 0 0
0 0 0 0 0 0 0 0 0 0 0 0 0 0 0 0 0 0 0 0 0 0 0 0 0 0 0 0 0 0 0 0 0 0 0 0 0 0 0 0 0 0 0
0 0 0 0 0 0 0 0 0 0 0 0 0 0 0 0 0 0 0 0 0 0 0 0 0 0 0 0 0 0 0 0 0 0 0 0 0 0 0 0 0 0 0
0 0 0 0 0 0 0 0 0 0 0 0 0 0 0 0 0 0 0 0 0 0 0 0 0 0 0 0 0 0 0 0 0 0 0 0 0 0 0 0 0 0 0
0 0 0 0 0 0 0 0 0 0 0 0 0 0 0 0 0 0 0 0 0 0 0 0 0 0 0 0 0 0 0 0 0 0 0 0 0 0 0 0 0 0 0
0 0 0 0 0 0 0 0 0 0 0 0 0 0 0 0 0 0 0 0 0 0 0 0 0 0 0 0 0 0 0 0 0 0 0 0 0 0 0 0 0 0 0
0 0 0 0 0 0 0 0 0 0 0 0 0 0 0 0 0 0 0 0 0 0 0 0 0 0 0 0 0 0 0 0 0 0 0 0 0 0 0 0 0 0 0
0 0 0 0 0 0 0 0 0 0 0 0 0 0 0 0 0 0 0 0 0 0 0 0 0 0 0 0 0 0 0 0 0 0 0 0 0 0 0 0 0 0 0
Wind_Speed_500mb
16 16 16 15 13 12 10 9 7 6 3 4 6 7 8 13 11 16 14 3 2 3 9 5 16 19 19 20 22 24 26 27 29 32 35 37 39 40 44 45 48 49 50
21 20 18 16 15 12 10 8 9 7 3 2 6 12 13 14 13 19 18 1 4 5 11 18 17 16 17 19 21 23 25 28 30 32 34 36 39 41 41 44 43 48 48
23 21 21 20 18 16 15 15 13 11 10 10 9 17 17 17 21 22 19 9 9 10 17 16 15 15 15 17 17 19 21 25 29 31 32 34 37 36 38 41 46 47 48
28 27 26 24 23 21 20 22 19 14 10 10 14 18 21 18 20 21 21 19 17 15 18 17 18 14 15 15 14 16 18 21 24 27 28 34 33 34 39 43 43 48 51
34 31 30 27 26 23 23 24 22 15 12 12 15 21 21 22 23 26 24 21 18 18 19 17 14 12 14 11 10 13 16 20 23 26 26 28 29 32 32 37 42 45 47
38 36 34 33 31 28 29 28 24 19 15 15 15 17 22 24 21 24 24 22 20 22 22 19 15 15 14 11 8 9 14 17 20 22 24 25 26 28 33 37 38 43 47
43 43 42 40 38 37 34 30 28 24 21 23 17 20 24 24 22 25 26 26 26 25 24 21 17 16 14 10 6 7 10 14 17 20 21 22 21 26 32 35 39 43 48
48 46 44 43 40 37 35 35 35 34 28 30 25 25 24 26 30 33 32 31 30 29 26 23 20 16 13 10 6 2 6 9 15 16 18 19 22 25 29 34 39 43 46
53 51 46 43 43 41 36 31 34 36 34 36 35 30 19 24 30 41 41 39 36 34 31 26 23 17 14 10 7 5 4 6 10 14 17 19 21 26 30 34 38 43 46
59 56 51 47 46 46 45 42 38 41 43 43 41 38 41 46 31 21 39 48 47 44 37 31 26 20 16 13 10 7 4 4 8 11 14 17 23 28 31 34 37 42 46
65 61 57 55 55 53 53 51 51 47 48 51 50 47 50 53 53 51 37 43 52 51 45 38 31 24 20 16 13 9 6 6 5 8 12 16 21 27 32 35 35 41 46
70 70 65 64 63 62 60 58 54 55 49 53 53 54 56 57 58 57 64 65 56 52 49 45 37 30 24 20 17 14 11 9 6 9 12 17 22 27 32 38 41 46 51
76 76 72 70 71 69 66 63 63 59 55 57 56 59 58 59 60 63 64 66 63 60 55 53 46 37 29 24 21 18 15 14 11 11 15 17 23 29 33 38 45 51 55
78 75 75 73 74 74 72 71 70 64 65 71 67 64 64 63 63 65 64 66 65 59 58 57 43 41 35 28 25 21 19 17 16 15 17 19 25 29 33 39 44 50 55
81 79 76 74 75 76 79 80 82 82 78 78 80 73 70 69 65 62 63 66 64 58 63 56 55 44 40 34 29 24 23 21 21 20 20 22 26 31 34 39 44 49 53
84 81 81 77 75 76 75 81 86 87 91 90 84 83 81 77 68 67 66 68 67 66 63 50 48 48 39 35 31 28 25 26 27 25 25 26 27 31 35 38 41 48 50
89 86 82 77 73 75 76 79 80 84 89 96 96 93 90 83 76 67 70 69 71 68 64 53 49 43 42 38 34 31 27 33 32 27 27 29 28 33 35 37 41 46 48
84 82 80 79 74 74 75 78 79 79 86 83 96 102 100 85 83 73 68 69 65 64 58 55 48 47 47 40 35 37 32 37 35 30 29 30 29 33 34 37 40 44 48
77 77 74 75 75 77 77 74 76 83 83 80 85 88 88 85 87 67 75 62 65 59 54 50 47 46 44 44 41 36 37 39 37 32 30 33 32 34 34 36 39 42 45
69 69 71 70 70 68 70 71 80 81 73 79 79 74 95 87 82 73 66 52 59 56 51 53 52 49 46 45 39 36 41 41 39 35 33 33 33 35 36 36 38 39 41
59 66 66 67 69 73 72 71 72 80 74 81 76 82 88 82 71 61 47 53 48 51 57 54 52 52 51 42 39 36 40 41 41 37 38 36 36 38 38 35 37 36 40
51 58 54 54 57 60 61 63 62 61 64 66 69 71 70 79 69 61 43 51 52 56 55 59 54 53 45 37 38 36 42 44 42 39 40 37 38 39 40 36 37 35 39
36 38 41 44 49 54 58 63 67 68 66 65 63 60 66 64 65 48 46 51 49 56 61 53 52 45 39 31 37 38 44 48 46 42 41 44 37 37 40 38 39 33 40
30 33 35 36 37 36 39 40 42 48 55 54 53 57 59 57 48 52 49 43 55 61 62 58 49 42 42 35 39 34 45 58 54 47 44 49 40 35 40 41 40 31 40
29 29 26 25 25 29 34 32 35 41 45 47 45 48 48 41 39 41 43 50 59 58 55 54 53 51 45 36 36 34 53 53 55 55 46 45 45 39 36 40 36 31 39
25 21 20 22 27 31 32 33 31 30 35 34 36 42 43 43 49 38 47 54 53 53 55 57 56 52 43 41 37 45 57 59 60 55 51 44 39 35 33 33 30 35 38
Wind_Direction_500mb
196 193 192 188 189 188 192 194 188 191 181 68 23 314 297 310 280 291 293 201 294 5 92 37 352 10 26 27 21 35 43 42 44 46 46 45 41 38 35 34 30 28 24
214 207 206 204 213 212 217 221 204 211 203 252 281 277 277 297 287 293 289 239 294 308 311 323 335 356 17 31 30 43 47 49 46 46 46 46 43 38 35 33 31 31 23
222 219 224 224 228 231 230 229 217 217 210 206 237 265 271 273 281 298 287 287 297 295 312 323 326 345 3 18 32 37 37 50 48 45 45 47 46 41 41 32 31 20 22
229 227 232 236 240 239 234 231 225 228 238 251 248 261 269 251 258 294 278 280 286 298 319 319 321 340 345 348 14 32 34 43 45 50 49 51 40 41 33 30 27 16 18
234 236 241 242 244 258 251 235 228 230 243 258 264 269 261 241 265 287 273 271 283 301 311 315 318 331 332 339 32 46 41 42 50 54 51 51 45 39 36 31 23 19 15
240 242 245 244 247 247 251 235 232 237 245 258 264 244 241 247 260 271 276 276 280 295 306 305 311 322 322 330 353 50 53 51 54 57 53 48 37 34 33 27 22 20 13
239 243 246 246 247 247 255 248 234 225 235 247 249 237 240 241 248 260 263 274 277 283 295 296 298 306 309 320 342 19 61 59 54 55 56 51 41 36 29 21 20 18 11
240 242 248 248 247 244 242 238 231 229 233 243 242 241 237 242 250 253 257 267 276 281 288 284 284 295 296 298 308 1 27 45 49 52 52 47 36 27 22 19 18 15 9
241 243 244 246 247 244 241 234 232 234 243 245 248 242 250 244 249 249 253 260 267 272 277 279 277 281 284 283 279 300 6 34 47 45 40 32 21 23 20 15 12 10 5
245 247 247 248 250 248 244 240 241 242 249 253 245 253 257 266 255 252 254 253 258 263 267 269 268 271 275 268 263 277 314 349 32 35 31 22 12 7 7 10 8 6 2
250 250 250 249 249 248 247 245 243 245 252 253 251 261 265 262 261 258 257 255 256 258 258 259 262 264 265 261 259 261 271 302 343 4 11 11 2 2 359 0 3 2 0
252 252 252 250 249 248 246 246 246 245 249 258 260 266 269 266 259 263 255 258 260 259 257 254 254 253 253 252 252 257 267 277 304 344 352 352 353 352 353 354 356 356 356
252 253 253 251 249 248 247 246 244 247 249 251 260 265 273 269 270 268 264 255 256 255 253 255 253 250 246 245 243 248 259 276 289 320 329 337 342 343 347 349 351 350 352
258 259 258 257 257 254 251 249 246 250 254 250 249 256 263 267 270 264 260 252 248 249 253 252 255 247 244 245 241 246 256 271 282 300 311 324 331 335 339 342 346 347 349
263 264 263 261 260 259 256 253 251 253 255 256 253 254 258 262 264 267 255 252 250 245 252 255 249 244 236 240 240 243 252 264 273 286 299 314 323 328 332 337 342 344 345
269 270 271 269 266 264 263 262 258 257 258 258 258 258 257 257 259 264 253 248 246 245 247 252 247 240 234 231 234 240 251 268 272 282 292 302 316 322 325 332 338 338 340
274 274 275 274 272 268 266 261 264 265 265 262 259 259 257 255 255 259 254 246 246 243 244 247 240 236 233 231 231 237 254 259 267 275 286 293 308 315 318 325 332 334 336
272 275 276 273 272 269 262 264 267 269 273 268 264 259 262 256 253 258 250 253 248 246 245 245 241 235 233 234 233 239 247 255 263 270 281 285 298 305 311 318 328 331 332
269 272 273 273 271 268 266 267 268 271 268 276 268 269 259 262 257 256 248 248 249 248 247 245 242 238 233 231 233 241 256 252 258 265 276 280 292 300 305 313 322 325 329
260 265 267 270 272 271 273 275 274 274 269 270 277 265 266 256 260 259 253 250 251 251 250 242 238 238 235 234 235 254 252 251 256 264 273 273 288 295 299 309 315 319 328
254 256 260 262 266 269 272 271 270 268 279 282 268 264 261 256 253 252 240 253 252 259 251 246 242 239 236 232 249 261 253 254 255 260 270 270 285 291 293 302 311 315 325
256 259 261 262 265 267 268 270 273 277 278 282 276 274 271 262 254 249 237 244 254 254 251 249 247 244 238 232 262 259 262 255 256 260 262 255 279 285 287 300 305 305 321
266 270 270 270 266 263 262 265 266 267 270 271 273 272 265 259 256 248 245 246 252 254 252 249 249 246 237 253 268 266 266 261 261 262 269 274 281 282 283 297 299 296 317
264 269 271 272 273 277 280 277 274 273 273 276 273 270 264 259 251 248 247 251 256 257 251 251 251 240 230 253 262 264 276 268 262 263 262 274 278 280 277 293 292 285 314
278 279 284 287 291 286 279 282 278 277 276 274 274 270 262 255 245 252 261 259 258 253 252 251 245 236 237 255 257 265 270 266 268 269 264 267 278 280 273 287 280 278 308
274 277 278 282 289 288 283 283 285 285 283 280 272 269 257 239 239 254 258 259 258 259 256 255 254 244 247 256 269 273 264 269 267 267 267 263 274 271 289 282 269 286 298
Wind_Speed_850mb
16 16 16 15 13 12 10 9 7 6 3 4 6 7 8 13 11 16 14 3 2 3 9 5 16 19 19 20 22 24 26 27 29 32 35 37 39 40 44 45 48 49 50
21 20 18 16 15 12 10 8 9 7 3 2 6 12 13 14 13 19 18 1 4 5 11 18 17 16 17 19 21 23 25 28 30 32 34 36 39 41 41 44 43 48 48
23 21 21 20 18 16 15 15 13 11 10 10 9 17 17 17 21 22 19 9 9 10 17 16 15 15 15 17 17 19 21 25 29 31 32 34 37 36 38 41 46 47 48
28 27 26 24 23 21 20 22 19 14 10 10 14 18 21 18 20 21 21 19 17 15 18 17 18 14 15 15 14 16 18 21 24 27 28 34 33 34 39 43 43 48 51
34 31 30 27 26 23 23 24 22 15 12 12 15 21 21 22 23 26 24 21 18 18 19 17 14 12 14 11 10 13 16 20 23 26 26 28 29 32 32 37 42 45 47
38 36 34 33 31 28 29 28 24 19 15 15 15 17 22 24 21 24 24 22 20 22 22 19 15 15 14 11 8 9 14 17 20 22 24 25 26 28 33 37 38 43 47
43 43 42 40 38 37 34 30 28 24 21 23 17 20 24 24 22 25 26 26 26 25 24 21 17 16 14 10 6 7 10 14 17 20 21 22 21 26 32 35 39 43 48
48 46 44 43 40 37 35 35 35 34 28 30 25 25 24 26 30 33 32 31 30 29 26 23 20 16 13 10 6 2 6 9 15 16 18 19 22 25 29 34 39 43 46
53 51 46 43 43 41 36 31 34 36 34 36 35 30 19 24 30 41 41 39 36 34 31 26 23 17 14 10 7 5 4 6 10 14 17 19 21 26 30 34 38 43 46
59 56 51 47 46 46 45 42 38 41 43 43 41 38 41 46 31 21 39 48 47 44 37 31 26 20 16 13 10 7 4 4 8 11 14 17 23 28 31 34 37 42 46
65 61 57 55 55 53 53 51 51 47 48 51 50 47 50 53 53 51 37 43 52 51 45 38 31 24 20 16 13 9 6 6 5 8 12 16 21 27 32 35 35 41 46
70 70 65 64 63 62 60 58 54 55 49 53 53 54 56 57 58 57 64 65 56 52 49 45 37 30 24 20 17 14 11 9 6 9 12 17 22 27 32 38 41 46 51
76 76 72 70 71 69 66 63 63 59 55 57 56 59 58 59 60 63 64 66 63 60 55 53 46 37 29 24 21 18 15 14 11 11 15 17 23 29 33 38 45 51 55
78 75 75 73 74 74 72 71 70 64 65 71 67 64 64 63 63 65 64 66 65 59 58 57 43 41 35 28 25 21 19 17 16 15 17 19 25 29 33 39 44 50 55
81 79 76 74 75 76 79 80 82 82 78 78 80 73 70 69 65 62 63 66 64 58 63 56 55 44 40 34 29 24 23 21 21 20 20 22 26 31 34 39 44 49 53
84 81 81 77 75 76 75 81 86 87 91 90 84 83 81 77 68 67 66 68 67 66 63 50 48 48 39 35 31 28 25 26 27 25 25 26 27 31 35 38 41 48 50
89 86 82 77 73 75 76 79 80 84 89 96 96 93 90 83 76 67 70 69 71 68 64 53 49 43 42 38 34 31 27 33 32 27 27 29 28 33 35 37 41 46 48
84 82 80 79 74 74 75 78 79 79 86 83 96 102 100 85 83 73 68 69 65 64 58 55 48 47 47 40 35 37 32 37 35 30 29 30 29 33 34 37 40 44 48
77 77 74 75 75 77 77 74 76 83 83 80 85 88 88 85 87 67 75 62 65 59 54 50 47 46 44 44 41 36 37 39 37 32 30 33 32 34 34 36 39 42 45
69 69 71 70 70 68 70 71 80 81 73 79 79 74 95 87 82 73 66 52 59 56 51 53 52 49 46 45 39 36 41 41 39 35 33 33 33 35 36 36 38 39 41
59 66 66 67 69 73 72 71 72 80 74 81 76 82 88 82 71 61 47 53 48 51 57 54 52 52 51 42 39 36 40 41 41 37 38 36 36 38 38 35 37 36 40
51 58 54 54 57 60 61 63 62 61 64 66 69 71 70 79 69 61 43 51 52 56 55 59 54 53 45 37 38 36 42 44 42 39 40 37 38 39 40 36 37 35 39
36 38 41 44 49 54 58 63 67 68 66 65 63 60 66 64 65 48 46 51 49 56 61 53 52 45 39 31 37 38 44 48 46 42 41 44 37 37 40 38 39 33 40
30 33 35 36 37 36 39 40 42 48 55 54 53 57 59 57 48 52 49 43 55 61 62 58 49 42 42 35 39 34 45 58 54 47 44 49 40 35 40 41 40 31 40
29 29 26 25 25 29 34 32 35 41 45 47 45 48 48 41 39 41 43 50 59 58 55 54 53 51 45 36 36 34 53 53 55 55 46 45 45 39 36 40 36 31 39
25 21 20 22 27 31 32 33 31 30 35 34 36 42 43 43 49 38 47 54 53 53 55 57 56 52 43 41 37 45 57 59 60 55 51 44 39 35 33 33 30 35 38
Wind_Direction_850mb
196 193 192 188 189 188 192 194 188 191 181 68 23 314 297 310 280 291 293 201 294 5 92 37 352 10 26 27 21 35 43 42 44 46 46 45 41 38 35 34 30 28 24
214 207 206 204 213 212 217 221 204 211 203 252 281 277 277 297 287 293 289 239 294 308 311 323 335 356 17 31 30 43 47 49 46 46 46 46 43 38 35 33 31 31 23
222 219 224 224 228 231 230 229 217 217 210 206 237 265 271 273 281 298 287 287 297 295 312 323 326 345 3 18 32 37 37 50 48 45 45 47 46 41 41 32 31 20 22
229 227 232 236 240 239 234 231 225 228 238 251 248 261 269 251 258 294 278 280 286 298 319 319 321 340 345 348 14 32 34 43 45 50 49 51 40 41 33 30 27 16 18
234 236 241 242 244 258 251 235 228 230 243 258 264 269 261 241 265 287 273 271 283 301 311 315 318 331 332 339 32 46 41 42 50 54 51 51 45 39 36 31 23 19 15
240 242 245 244 247 247 251 235 232 237 245 258 264 244 241 247 260 271 276 276 280 295 306 305 311 322 322 330 353 50 53 51 54 57 53 48 37 34 33 27 22 20 13
239 243 246 246 247 247 255 248 234 225 235 247 249 237 240 241 248 260 263 274 277 283 295 296 298 306 309 320 342 19 61 59 54 55 56 51 41 36 29 21 20 18 11
240 242 248 248 247 244 242 238 231 229 233 243 242 241 237 242 250 253 257 267 276 281 288 284 284 295 296 298 308 1 27 45 49 52 52 47 36 27 22 19 18 15 9
241 243 244 246 247 244 241 234 232 234 243 245 248 242 250 244 249 249 253 260 267 272 277 279 277 281 284 283 279 300 6 34 47 45 40 32 21 23 20 15 12 10 5
245 247 247 248 250 248 244 240 241 242 249 253 245 253 257 266 255 252 254 253 258 263 267 269 268 271 275 268 263 277 314 349 32 35 31 22 12 7 7 10 8 6 2
250 250 250 249 249 248 247 245 243 245 252 253 251 261 265 262 261 258 257 255 256 258 258 259 262 264 265 261 259 261 271 302 343 4 11 11 2 2 359 0 3 2 0
252 252 252 250 249 248 246 246 246 245 249 258 260 266 269 266 259 263 255 258 260 259 257 254 254 253 253 252 252 257 267 277 304 344 352 352 353 352 353 354 356 356 356
252 253 253 251 249 248 247 246 244 247 249 251 260 265 273 269 270 268 264 255 256 255 253 255 253 250 246 245 243 248 259 276 289 320 329 337 342 343 347 349 351 350 352
258 259 258 257 257 254 251 249 246 250 254 250 249 256 263 267 270 264 260 252 248 249 253 252 255 247 244 245 241 246 256 271 282 300 311 324 331 335 339 342 346 347 349
263 264 263 261 260 259 256 253 251 253 255 256 253 254 258 262 264 267 255 252 250 245 252 255 249 244 236 240 240 243 252 264 273 286 299 314 323 328 332 337 342 344 345
269 270 271 269 266 264 263 262 258 257 258 258 258 258 257 257 259 264 253 248 246 245 247 252 247 240 234 231 234 240 251 268 272 282 292 302 316 322 325 332 338 338 340
274 274 275 274 272 268 266 261 264 265 265 262 259 259 257 255 255 259 254 246 246 243 244 247 240 236 233 231 231 237 254 259 267 275 286 293 308 315 318 325 332 334 336
272 275 276 273 272 269 262 264 267 269 273 268 264 259 262 256 253 258 250 253 248 246 245 245 241 235 233 234 233 239 247 255 263 270 281 285 298 305 311 318 328 331 332
269 272 273 273 271 268 266 267 268 271 268 276 268 269 259 262 257 256 248 248 249 248 247 245 242 238 233 231 233 241 256 252 258 265 276 280 292 300 305 313 322 325 329
260 265 267 270 272 271 273 275 274 274 269 270 277 265 266 256 260 259 253 250 251 251 250 242 238 238 235 234 235 254 252 251 256 264 273 273 288 295 299 309 315 319 328
254 256 260 262 266 269 272 271 270 268 279 282 268 264 261 256 253 252 240 253 252 259 251 246 242 239 236 232 249 261 253 254 255 260 270 270 285 291 293 302 311 315 325
256 259 261 262 265 267 268 270 273 277 278 282 276 274 271 262 254 249 237 244 254 254 251 249 247 244 238 232 262 259 262 255 256 260 262 255 279 285 287 300 305 305 321
266 270 270 270 266 263 262 265 266 267 270 271 273 272 265 259 256 248 245 246 252 254 252 249 249 246 237 253 268 266 266 261 261 262 269 274 281 282 283 297 299 296 317
264 269 271 272 273 277 280 277 274 273 273 276 273 270 264 259 251 248 247 251 256 257 251 251 251 240 230 253 262 264 276 268 262 263 262 274 278 280 277 293 292 285 314
278 279 284 287 291 286 279 282 278 277 276 274 274 270 262 255 245 252 261 259 258 253 252 251 245 236 237 255 257 265 270 266 268 269 264 267 278 280 273 287 280 278 308
274 277 278 282 289 288 283 283 285 285 283 280 272 269 257 239 239 254 258 259 258 259 256 255 254 244 247 256 269 273 264 269 267 267 267 263 274 271 289 282 269 286 298